Location: Prague
(50.0830°N, 14.4670°E)
Time: 16:51:35
(UTC+01:00)

ITUPSAT 1 - Visible Passes

Search period start: 28 November 2021 00:00
Search period end: 08 December 2021 00:00
Orbit: 701 x 712 km, 98.6° (Epoch: 27 November)

Date Brightness Start Highest point End Pass type
(mag) Time Alt. Az. Time Alt. Az. Time Alt. Az.
28 Nov ? 05:36:03 10° ESE 05:39:56 25° ENE 05:43:51 10° N visible
29 Nov ? 04:46:07 10° ENE 04:46:55 10° NE 04:47:44 10° NE visible
29 Nov ? 06:19:03 10° SSE 06:23:43 56° ENE 06:28:25 10° N visible
30 Nov ? 05:26:46 10° ESE 05:30:22 22° ENE 05:33:59 10° N visible
01 Dec ? 06:09:32 10° SE 06:14:05 46° ENE 06:18:41 10° N visible
02 Dec ? 05:17:35 10° E 05:20:49 18° ENE 05:24:04 10° NNE visible
02 Dec ? 06:53:18 10° S 06:58:04 76° WSW 07:02:53 10° NNW visible
03 Dec ? 06:00:04 10° SE 06:04:28 38° ENE 06:08:55 10° N visible
04 Dec ? 05:08:29 10° E 05:11:17 16° NE 05:14:05 10° NNE visible
04 Dec ? 06:43:36 10° SSE 06:48:23 89° E 06:53:14 10° NNW visible
05 Dec ? 05:50:39 10° SE 05:54:52 32° ENE 05:59:08 10° N visible
06 Dec ? 04:59:31 10° E 05:01:45 13° NE 05:03:59 10° NNE visible
06 Dec ? 06:33:58 10° SSE 06:38:43 74° ENE 06:43:32 10° NNW visible
07 Dec ? 05:41:17 10° ESE 05:45:17 27° ENE 05:49:18 10° N visible
